This demonstration page uses our WeatherBlox Daily Observations layout. Learn more.

Left ArrowRight Arrow

38.83388, -104.82136

Hourly Observations for January 5, 2017

Temp ( °F °C ) Dew Point ( °F °C ) Humidity (%) Winds ( mph kmh ) Pressure ( in mb ) Visibility ( mi km ) Precip ( " mm )
12:33 am 00:33 Cloudy with Light Snow 1 -17 0 -18 92 92 SE 9 15 30.18 1022 3 4 0.00 0.00
12:58 am 00:58 Cloudy with Light Snow 1 -17 -1 -18.4 89 89 S 6 9 29.66 1004 4 6 0.00 0.00
1:38 am 01:38 Cloudy with Light Snow 1 -17 -2 -19 85 85 Calm 30.18 1022 5 8 0.00 0.00
1:58 am 01:58 Cloudy with Light Snow 2 -16.7 -1 -18.3 88 88 Calm 29.66 1004 4 6 0.00 0.00
2:08 am 02:08 Cloudy with Light Snow 1 -17 0 -18 92 92 Calm 30.18 1022 3 4 0.00 0.00
2:53 am 02:53 Cloudy with Light Snow 1 -17 -2 -19 85 85 NNW 6 9 30.18 1022 9 14 0.00 0.00
2:58 am 02:58 Cloudy with Light Snow 1 -17.4 -2 -19.1 87 87 N 5 7 29.66 1004 9 14 0.00 0.00
3:58 am 03:58 Cloudy with Light Snow Showers 1 -17.5 -5 -20.3 79 79 N 15 24 29.68 1005 5 8 0.00 0.00
4:58 am 04:58 Cloudy with Light Snow 0 -18 -4 -19.8 86 86 N 9 15 29.70 1006 3 4 0.00 0.00
5:48 am 05:48 Cloudy with Light Snow 3 -16 -4 -20 72 72 NW 8 13 30.18 1022 7 11 0.00 0.00
5:58 am 05:58 Cloudy with Light Snow 2 -16.7 -4 -19.8 77 77 N 12 19 29.72 1006 2 3 0.00 0.00
6:18 am 06:18 Cloudy with Light Snow 0 -18 -2 -19 92 92 N 9 15 30.30 1026 1 2 0.00 0.00
6:33 am 06:33 Cloudy with Light Snow 0 -18 -4 -20 84 84 NNW 9 15 30.30 1026 7 11 0.00 0.00
6:53 am 06:53 Cloudy with Snow 0 -18 -4 -20 84 84 N 14 22 30.30 1026 1 1 0.00 0.00
6:58 am 06:58 Cloudy with Snow -1 -18.2 -5 -20.5 82 82 N 14 22 29.79 1009 1 1 0.00 0.00
8:58 am 08:58 Cloudy with Light Snow -1 -18.2 -4 -20.1 85 85 N 10 17 29.86 1011 7 11 0.00 0.00
9:23 am 09:23 Cloudy with Light Snow 0 -18 -4 -20 84 84 N 9 15 30.36 1028 4 6 0.00 0.00
9:38 am 09:38 Cloudy with Light Snow 0 -18 -4 -20 84 84 N 14 22 30.36 1028 7 11 0.00 0.00
10:28 am 10:28 Cloudy with Light Snow 0 -18 -4 -20 84 84 N 3 6 30.36 1028 1 2 0.00 0.00
10:58 am 10:58 Cloudy with Light Snow 0 -18 -4 -19.8 86 86 N 12 19 29.89 1012 1 2 0.00 0.00
11:13 am 11:13 Cloudy with Snow 0 -18 -4 -20 84 84 N 5 7 30.36 1028 1 1 0.00 0.00
11:23 am 11:23 Cloudy with Snow 0 -18 -4 -20 84 84 NE 5 7 30.36 1028 1 1 0.00 0.00
11:58 am 11:58 Cloudy with Snow 0 -17.7 -3 -19.3 87 87 ESE 3 6 29.86 1011 5 8 0.00 0.00
12:08 pm 12:08 Cloudy with Snow 0 -18 -2 -19 92 92 ENE 3 6 30.33 1027 1 1 0.00 0.00
12:28 pm 12:28 Cloudy with Light Snow 0 -18 -2 -19 92 92 ESE 5 7 30.33 1027 7 11 0.00 0.00
12:43 pm 12:43 Cloudy with Light Snow 1 -17 -2 -19 85 85 SE 6 9 30.30 1026 3 5 0.00 0.00
12:58 pm 12:58 Mostly Cloudy with Light Snow 1 -17.4 -2 -18.8 89 89 SE 8 13 29.84 1010 3 5 0.00 0.00
1:38 pm 13:38 Cloudy with Light Snow 1 -17 -2 -19 85 85 SE 9 15 30.27 1025 3 4 0.00 0.00
1:43 pm 13:43 Cloudy with Light Snow 1 -17 -2 -19 85 85 SSE 9 15 30.27 1025 2 2 0.00 0.00
1:58 pm 13:58 Cloudy with Light Snow 1 -17.2 -2 -18.8 87 87 SE 9 15 29.82 1010 1 2 0.00 0.00
2:23 pm 14:23 Mostly Cloudy with Light Snow 1 -17 -2 -19 85 85 SSE 10 17 30.27 1025 4 6 0.00 0.00
2:58 pm 14:58 Mostly Cloudy with Light Snow 0 -17.6 -3 -19.3 87 87 SSE 6 9 29.85 1011 4 6 0.00 0.00
3:58 pm 15:58 Cloudy with Light Snow 0 -17.9 -3 -19.7 86 86 SSE 3 6 29.85 1011 1 2 0.00 0.00
4:43 pm 16:43 Cloudy with Light Snow 0 -18 -4 -20 84 84 S 5 7 30.36 1028 1 1 0.00 0.00
4:58 pm 16:58 Cloudy with Snow -1 -18.1 -3 -19.7 87 87 Calm 29.87 1011 1 1 0.00 0.00
5:13 pm 17:13 Cloudy with Light Snow 0 -18 -2 -19 92 92 Calm 30.33 1027 3 5 0.00 0.00
5:58 pm 17:58 Cloudy with Light Snow -1 -18.1 -4 -19.8 87 87 Calm 29.86 1011 3 5 0.00 0.00
6:53 pm 18:53 Cloudy with Light Snow 1 -17 -2 -19 85 85 Calm 30.33 1027 7 11 0.00 0.00
6:58 pm 18:58 Cloudy with Light Snow 1 -17.3 -2 -18.8 88 88 Calm 29.89 1012 3 5 0.00 0.00
7:38 pm 19:38 Cloudy with Light Snow 3 -16 0 -18 85 85 SSE 3 6 30.30 1026 6 10 0.00 0.00
7:58 pm 19:58 Cloudy with Light Snow 2 -16.9 -1 -18.4 88 88 SE 3 6 29.88 1012 5 8 0.00 0.00
8:58 pm 20:58 Cloudy with Light Snow 1 -17.4 -2 -19 87 87 Calm 29.88 1012 10 16 0.00 0.00
9:01 pm 21:01 Cloudy 1 -17 -2 -19 85 85 NNW 6 9 30.30 1026 10 16 0.00 0.00
9:58 pm 21:58 Mostly Cloudy 2 -16.8 -2 -18.8 85 85 Calm 29.87 1012 10 16 0.00 0.00
10:58 pm 22:58 Mostly Cloudy 2 -16.7 -1 -18.5 86 86 Calm 29.87 1012 10 16 0.00 0.00
11:58 pm 23:58 Mostly Cloudy 1 -17.5 -3 -19.2 87 87 Calm 29.85 1011 10 16 0.00 0.00

Powered by AerisWeather